QPF
0.00 0.00 0.00 0.00 0.00 0.00 0.01 0.01 0.01 0.00 0.00 0.00 0.00 0.00 0.00 0.00 0.00 0.01 0.00 0.00 0.01 0.02 0.03 0.04 0.03 0.02 0.01 0.00 0.00 0.00 0.00 0.00 0.00 0.00 0.00 0.00 0.00 0.01
0.00 0.00 0.00 0.00 0.00 0.00 0.00 0.00 0.01 0.01 0.00 0.00 0.00 0.00 0.00 0.00 0.00 0.00 0.00 0.01 0.02 0.01 0.02 0.03 0.05 0.04 0.01 0.00 0.00 0.00 0.00 0.00 0.00 0.00 0.01 0.03 0.03 0.02
0.00 0.00 0.00 0.00 0.00 0.01 0.01 0.00 0.00 0.00 0.01 0.00 0.00 0.00 0.00 0.00 0.00 0.00 0.00 0.01 0.01 0.02 0.04 0.06 0.05 0.03 0.01 0.00 0.00 0.01 0.01 0.01 0.01 0.01 0.01 0.01 0.02 0.03
0.00 0.00 0.00 0.00 0.00 0.01 0.01 0.01 0.01 0.02 0.02 0.00 0.00 0.00 0.00 0.00 0.00 0.00 0.00 0.00 0.00 0.00 0.01 0.02 0.02 0.03 0.04 0.03 0.02 0.02 0.02 0.02 0.01 0.01 0.01 0.01 0.01 0.01
0.00 0.00 0.00 0.00 0.00 0.00 0.00 0.00 0.00 0.01 0.02 0.01 0.00 0.00 0.01 0.01 0.01 0.00 0.00 0.00 0.00 0.00 0.00 0.04 0.08 0.08 0.06 0.05 0.03 0.02 0.01 0.01 0.00 0.00 0.00 0.01 0.01 0.01
0.00 0.00 0.00 0.00 0.00 0.00 0.00 0.00 0.00 0.00 0.00 0.00 0.00 0.01 0.02 0.02 0.03 0.01 0.01 0.00 0.00 0.01 0.02 0.03 0.05 0.06 0.06 0.05 0.02 0.01 0.01 0.01 0.01 0.01 0.01 0.01 0.01 0.00
0.00 0.00 0.00 0.00 0.00 0.00 0.00 0.00 0.00 0.00 0.00 0.00 0.00 0.00 0.01 0.02 0.01 0.03 0.02 0.03 0.04 0.05 0.05 0.08 0.13 0.16 0.12 0.11 0.10 0.07 0.04 0.02 0.02 0.03 0.03 0.02 0.01 0.01
0.00 0.00 0.00 0.00 0.00 0.01 0.01 0.01 0.01 0.01 0.01 0.01 0.01 0.02 0.02 0.04 0.04 0.08 0.12 0.16 0.16 0.17 0.21 0.23 0.20 0.19 0.17 0.15 0.11 0.08 0.07 0.08 0.07 0.06 0.04 0.01 0.00 0.00
0.00 0.00 0.00 0.00 0.00 0.00 0.01 0.01 0.01 0.02 0.01 0.01 0.03 0.06 0.08 0.09 0.14 0.22 0.22 0.34 0.42 0.37 0.25 0.19 0.19 0.23 0.25 0.20 0.15 0.10 0.11 0.11 0.10 0.05 0.02 0.00 0.00 0.00
0.00 0.00 0.00 0.00 0.01 0.00 0.00 0.00 0.01 0.02 0.09 0.16 0.18 0.17 0.10 0.04 0.04 0.06 0.11 0.15 0.17 0.14 0.11 0.11 0.13 0.20 0.23 0.22 0.24 0.21 0.18 0.14 0.08 0.03 0.01 0.00 0.00 0.00
0.00 0.00 0.00 0.00 0.01 0.00 0.00 0.00 0.01 0.02 0.05 0.06 0.05 0.06 0.04 0.03 0.02 0.00 0.01 0.03 0.06 0.07 0.10 0.15 0.18 0.20 0.21 0.20 0.17 0.12 0.08 0.04 0.01 0.00 0.00 0.00 0.00 0.00
0.00 0.00 0.01 0.00 0.00 0.00 0.00 0.01 0.02 0.02 0.02 0.02 0.02 0.02 0.02 0.01 0.02 0.01 0.02 0.04 0.08 0.09 0.08 0.12 0.13 0.11 0.10 0.09 0.06 0.02 0.00 0.00 0.00 0.00 0.00 0.00 0.00 0.00
0.00 0.00 0.00 0.00 0.00 0.00 0.00 0.01 0.03 0.03 0.03 0.02 0.02 0.02 0.01 0.01 0.02 0.04 0.04 0.04 0.03 0.02 0.01 0.02 0.03 0.03 0.03 0.01 0.00 0.00 0.00 0.00 0.00 0.00 0.00 0.00 0.00 0.00
0.00 0.00 0.00 0.00 0.00 0.00 0.00 0.00 0.00 0.00 0.00 0.00 0.00 0.00 0.00 0.01 0.01 0.01 0.02 0.01 0.01 0.01 0.00 0.00 0.00 0.00 0.00 0.00 0.00 0.00 0.00 0.00 0.00 0.00 0.00 0.00 0.00 0.00
0.00 0.00 0.00 0.00 0.00 0.00 0.00 0.00 0.00 0.00 0.00 0.00 0.00 0.00 0.00 0.00 0.00 0.00 0.00 0.00 0.00 0.00 0.00 0.00 0.00 0.00 0.00 0.00 0.00 0.00 0.00 0.00 0.00 0.00 0.00 0.00 0.00 0.00
0.00 0.00 0.00 0.00 0.00 0.00 0.00 0.00 0.00 0.00 0.00 0.00 0.00 0.00 0.00 0.00 0.00 0.00 0.00 0.00 0.00 0.00 0.00 0.00 0.00 0.00 0.00 0.00 0.00 0.00 0.00 0.00 0.00 0.00 0.00 0.00 0.00 0.00
0.00 0.00 0.00 0.00 0.00 0.00 0.00 0.00 0.00 0.00 0.00 0.00 0.00 0.00 0.00 0.00 0.00 0.00 0.00 0.00 0.00 0.00 0.00 0.00 0.00 0.00 0.00 0.00 0.00 0.00 0.00 0.00 0.00 0.00 0.00 0.00 0.00 0.00
0.00 0.00 0.00 0.00 0.00 0.00 0.00 0.00 0.00 0.00 0.00 0.00 0.00 0.00 0.00 0.00 0.00 0.00 0.00 0.00 0.00 0.00 0.00 0.00 0.00 0.00 0.00 0.00 0.00 0.00 0.00 0.00 0.00 0.00 0.00 0.01 0.00 0.00
0.00 0.00 0.00 0.00 0.00 0.00 0.00 0.00 0.00 0.00 0.00 0.00 0.00 0.00 0.00 0.00 0.00 0.00 0.00 0.00 0.00 0.00 0.00 0.00 0.00 0.00 0.00 0.00 0.00 0.00 0.00 0.00 0.00 0.00 0.00 0.00 0.00 0.00
0.00 0.00 0.00 0.00 0.00 0.00 0.00 0.00 0.00 0.00 0.00 0.00 0.00 0.00 0.00 0.00 0.00 0.00 0.00 0.00 0.00 0.00 0.00 0.00 0.00 0.00 0.00 0.00 0.00 0.00 0.00 0.00 0.00 0.00 0.00 0.00 0.00 0.00
0.00 0.00 0.00 0.00 0.00 0.00 0.00 0.00 0.00 0.00 0.00 0.00 0.00 0.00 0.00 0.00 0.00 0.00 0.00 0.00 0.00 0.00 0.00 0.00 0.00 0.00 0.00 0.00 0.00 0.00 0.00 0.00 0.00 0.00 0.00 0.01 0.00 0.00
0.00 0.00 0.00 0.00 0.00 0.00 0.00 0.00 0.00 0.00 0.00 0.00 0.00 0.00 0.00 0.00 0.00 0.00 0.00 0.00 0.00 0.00 0.00 0.00 0.00 0.00 0.00 0.00 0.00 0.00 0.00 0.00 0.00 0.00 0.00 0.00 0.00 0.00
0.00 0.00 0.00 0.00 0.00 0.00 0.00 0.00 0.00 0.00 0.00 0.00 0.00 0.00 0.00 0.00 0.00 0.00 0.00 0.00 0.00 0.00 0.00 0.00 0.00 0.00 0.00 0.00 0.00 0.00 0.00 0.00 0.00 0.00 0.00 0.00 0.00 0.00
MSLP
1011.63 1011.50 1011.39 1011.33 1011.49 1011.51 1011.54 1011.63 1011.66 1011.22 1010.47 1010.47 1010.58 1010.45 1010.30 1010.24 1010.26 1010.47 1010.52 1010.50 1010.53 1010.41 1010.50 1010.68 1010.68 1011.02 1010.97 1011.22 1011.51 1011.85 1011.83 1012.03 1012.10 1012.03 1012.15 1012.31 1012.32 1012.34
1011.46 1011.26 1011.16 1011.12 1011.04 1011.09 1011.11 1011.09 1011.19 1011.04 1010.37 1010.32 1010.08 1010.15 1010.02 1009.90 1009.80 1009.99 1009.80 1009.69 1009.58 1009.62 1009.78 1009.92 1009.73 1010.01 1010.24 1010.46 1010.52 1010.81 1011.06 1011.12 1011.40 1011.52 1011.36 1011.40 1011.49 1011.56
1011.22 1011.11 1010.99 1010.97 1010.84 1010.84 1010.90 1010.99 1010.89 1010.76 1010.36 1009.81 1009.80 1009.66 1009.50 1009.33 1009.26 1009.22 1009.10 1009.06 1008.86 1008.90 1008.89 1009.11 1008.94 1008.87 1009.32 1009.49 1009.53 1010.00 1010.09 1010.14 1010.43 1010.76 1010.69 1010.66 1010.66 1010.92
1010.87 1010.92 1010.75 1010.69 1010.60 1010.53 1010.50 1010.47 1010.34 1010.24 1010.17 1009.47 1009.39 1009.22 1008.99 1008.75 1008.46 1008.29 1008.34 1008.19 1008.02 1007.88 1007.94 1007.87 1008.02 1008.03 1008.33 1008.54 1008.67 1009.18 1009.40 1009.62 1009.60 1009.71 1009.68 1009.22 1009.61 1010.03
1010.87 1010.80 1010.62 1010.64 1010.57 1010.48 1010.44 1010.38 1010.32 1010.16 1009.94 1009.56 1008.74 1008.67 1008.38 1008.18 1007.94 1007.67 1007.56 1007.42 1007.26 1007.31 1007.22 1007.02 1007.01 1007.20 1007.27 1007.39 1007.59 1008.06 1008.62 1008.79 1008.84 1008.81 1008.69 1008.87 1009.14 1009.25
1011.17 1011.05 1010.88 1010.74 1010.55 1010.38 1010.26 1010.04 1009.96 1009.86 1009.67 1009.38 1008.78 1008.33 1008.10 1007.57 1007.54 1007.13 1006.60 1006.67 1006.49 1006.57 1006.53 1006.43 1006.17 1006.22 1006.42 1006.66 1006.86 1007.45 1007.96 1008.01 1008.23 1008.32 1008.74 1008.56 1008.79 1009.11
1011.33 1011.22 1011.02 1010.83 1010.70 1010.67 1010.49 1010.04 1009.99 1009.78 1009.45 1009.18 1008.79 1008.36 1007.87 1007.58 1007.38 1006.86 1006.51 1006.01 1005.69 1006.19 1006.30 1006.08 1006.02 1006.21 1006.38 1006.04 1006.65 1007.34 1007.24 1007.39 1007.93 1008.29 1008.51 1008.74 1008.80 1008.99
1011.14 1010.99 1010.88 1010.70 1010.57 1010.42 1010.30 1010.39 1010.22 1009.98 1009.62 1009.35 1008.95 1008.60 1008.01 1008.14 1007.90 1007.13 1006.68 1006.38 1006.59 1007.05 1007.16 1006.72 1005.80 1005.91 1006.18 1006.96 1007.06 1006.78 1007.43 1007.92 1008.46 1008.15 1008.89 1008.88 1009.09 1009.09
1011.40 1011.22 1010.99 1010.92 1010.70 1010.60 1010.77 1010.92 1010.83 1010.70 1010.61 1010.22 1009.81 1009.98 1009.67 1009.59 1008.80 1008.21 1007.42 1007.60 1008.26 1008.46 1007.80 1007.26 1007.88 1007.46 1008.09 1008.22 1008.21 1007.63 1007.81 1008.42 1009.01 1008.97 1008.73 1009.52 1009.40 1009.39
1011.75 1011.60 1011.32 1011.13 1010.87 1010.69 1010.91 1011.19 1011.46 1011.49 1011.22 1010.96 1011.35 1010.97 1011.00 1010.44 1009.56 1009.36 1008.89 1008.71 1008.84 1009.14 1008.58 1008.27 1008.54 1008.97 1009.17 1009.24 1009.18 1009.24 1008.67 1009.38 1009.15 1009.53 1008.94 1009.43 1009.35 1009.28
1012.14 1012.00 1011.78 1011.53 1011.26 1010.93 1010.93 1011.27 1011.54 1011.73 1011.92 1011.82 1011.66 1011.56 1011.92 1010.87 1010.31 1009.62 1009.69 1009.59 1009.82 1009.85 1009.48 1009.51 1009.71 1009.79 1009.94 1009.98 1009.54 1009.53 1009.73 1009.58 1009.81 1009.83 1009.61 1009.41 1009.26 1009.09
1012.36 1012.24 1012.01 1011.64 1011.50 1011.47 1011.36 1011.50 1011.74 1012.06 1012.02 1011.99 1012.14 1012.11 1011.82 1011.54 1011.12 1010.94 1010.70 1010.37 1010.19 1010.48 1010.84 1010.51 1010.28 1010.45 1010.12 1009.89 1009.91 1009.72 1009.91 1009.77 1010.14 1009.81 1009.51 1009.26 1009.07 1008.71
1012.75 1012.81 1012.72 1012.53 1012.34 1012.12 1011.91 1011.88 1011.97 1012.27 1012.29 1012.34 1012.50 1012.42 1012.34 1012.19 1012.02 1011.70 1011.57 1011.24 1011.18 1011.03 1011.22 1011.19 1011.10 1010.94 1010.58 1010.41 1010.19 1009.91 1010.04 1010.02 1009.91 1009.71 1009.64 1009.38 1009.08 1009.13
1012.86 1012.97 1012.93 1012.90 1012.89 1012.82 1012.64 1012.56 1012.51 1012.47 1012.50 1012.77 1012.87 1012.84 1012.75 1012.66 1012.60 1012.43 1012.18 1011.91 1011.90 1011.74 1011.48 1011.49 1011.39 1011.35 1011.16 1010.78 1010.28 1009.80 1009.98 1009.74 1009.89 1009.74 1009.43 1009.19 1008.92 1008.84
1013.19 1013.17 1013.17 1013.21 1013.25 1013.25 1013.23 1013.25 1013.37 1013.28 1013.17 1013.04 1013.16 1013.41 1013.56 1013.55 1013.16 1012.87 1012.56 1012.26 1012.11 1011.98 1012.05 1012.12 1012.06 1011.74 1011.40 1011.11 1010.57 1010.30 1009.69 1009.38 1009.47 1009.38 1009.16 1009.05 1008.94 1008.85
1013.72 1013.82 1013.77 1013.75 1013.85 1013.96 1013.84 1013.79 1013.71 1013.83 1013.81 1013.77 1013.71 1013.70 1013.67 1013.60 1013.41 1013.45 1013.25 1012.86 1012.53 1012.33 1012.32 1012.29 1012.10 1011.82 1011.62 1011.45 1011.12 1010.19 1009.82 1009.53 1008.87 1008.82 1008.70 1008.44 1008.28 1008.18
1013.98 1014.08 1014.04 1014.00 1014.10 1014.26 1014.33 1014.31 1014.20 1014.26 1014.33 1014.34 1014.24 1014.15 1014.08 1013.98 1013.94 1013.92 1013.74 1013.38 1013.17 1013.08 1012.77 1012.41 1012.25 1011.91 1011.56 1011.34 1010.86 1010.39 1009.97 1009.52 1009.11 1008.91 1008.64 1007.85 1007.59 1007.64
1013.60 1013.71 1013.88 1013.92 1013.78 1013.89 1014.15 1014.34 1014.37 1014.43 1014.58 1014.55 1014.50 1014.48 1014.45 1014.35 1014.24 1014.12 1013.97 1013.83 1013.67 1013.44 1013.26 1013.15 1012.91 1012.01 1011.37 1010.67 1010.61 1010.38 1010.14 1009.81 1009.53 1009.35 1009.15 1008.79 1007.47 1007.17
1013.16 1013.40 1013.65 1013.79 1013.83 1014.13 1014.31 1014.50 1014.60 1014.69 1014.95 1014.89 1014.85 1014.89 1014.84 1014.72 1014.48 1014.38 1014.40 1014.12 1013.84 1013.69 1013.66 1013.64 1013.30 1012.96 1012.24 1011.62 1010.85 1010.33 1010.27 1010.10 1009.80 1009.30 1009.05 1008.77 1008.18 1006.92
1012.46 1012.91 1013.17 1013.50 1013.70 1013.86 1014.16 1014.36 1014.61 1014.90 1014.98 1014.98 1014.93 1014.95 1014.96 1014.86 1014.74 1014.63 1014.50 1014.46 1014.14 1013.80 1013.79 1013.56 1013.30 1013.11 1012.68 1012.16 1011.65 1010.61 1010.32 1009.88 1009.41 1008.82 1008.34 1007.98 1007.57 1007.03
1012.07 1012.41 1012.57 1012.86 1013.11 1013.48 1013.86 1014.19 1014.40 1014.68 1014.96 1015.15 1015.13 1015.15 1015.07 1015.11 1014.89 1014.84 1014.75 1014.51 1014.20 1014.11 1013.86 1013.46 1013.09 1012.77 1012.46 1012.26 1011.60 1010.28 1009.48 1009.25 1008.86 1008.39 1007.91 1007.45 1006.79 1006.23
1011.53 1011.90 1012.26 1012.68 1012.92 1013.18 1013.50 1013.81 1014.10 1014.36 1014.78 1015.09 1015.13 1015.06 1015.09 1015.17 1014.97 1014.89 1014.80 1014.62 1014.35 1014.18 1013.88 1013.41 1012.90 1012.55 1012.35 1011.95 1011.28 1010.46 1009.40 1008.55 1008.22 1007.64 1007.18 1006.82 1006.49 1005.83
1010.89 1011.21 1011.59 1011.79 1012.15 1012.69 1013.21 1013.45 1013.86 1014.11 1014.51 1014.74 1014.85 1014.93 1014.99 1015.07 1014.88 1014.74 1014.66 1014.47 1014.22 1013.90 1013.56 1013.13 1012.69 1012.33 1012.02 1011.55 1011.02 1010.20 1009.45 1008.41 1007.56 1006.84 1006.16 1005.70 1005.44 1005.04
Thickness
5585 5590 5595 5599 5599 5601 5601 5600 5599 5604 5618 5624 5624 5628 5626 5624 5626 5625 5628 5628 5628 5631 5630 5628 5629 5626 5628 5625 5623 5619 5620 5619 5619 5619 5617 5616 5615 5613
5571 5578 5583 5585 5588 5590 5590 5591 5591 5592 5597 5608 5612 5612 5613 5614 5612 5610 5614 5617 5621 5622 5621 5621 5623 5620 5618 5617 5618 5614 5612 5612 5610 5609 5611 5610 5608 5607
5559 5564 5569 5571 5575 5576 5575 5575 5578 5579 5580 5594 5592 5596 5597 5601 5602 5598 5600 5602 5606 5610 5611 5610 5614 5617 5612 5610 5611 5605 5605 5605 5603 5601 5602 5602 5602 5599
5552 5554 5558 5560 5563 5564 5564 5565 5566 5566 5563 5574 5575 5578 5578 5582 5586 5588 5589 5591 5594 5598 5599 5602 5603 5606 5603 5602 5602 5597 5595 5597 5595 5595 5596 5603 5599 5594
5542 5544 5547 5548 5548 5549 5549 5550 5548 5548 5545 5546 5561 5559 5560 5563 5564 5567 5573 5576 5580 5583 5584 5588 5592 5592 5594 5594 5593 5592 5586 5586 5587 5588 5592 5590 5586 5586
5534 5535 5537 5537 5538 5538 5538 5538 5536 5534 5531 5528 5532 5537 5537 5544 5542 5550 5557 5559 5565 5567 5572 5576 5581 5583 5582 5582 5581 5578 5574 5575 5575 5574 5570 5575 5573 5571
5535 5535 5535 5535 5532 5531 5530 5530 5526 5522 5517 5512 5511 5513 5519 5521 5525 5534 5540 5550 5555 5552 5557 5563 5568 5569 5562 5568 5564 5560 5564 5563 5561 5558 5556 5554 5557 5556
5536 5535 5534 5533 5531 5528 5525 5519 5514 5509 5506 5501 5499 5500 5505 5499 5503 5517 5524 5530 5537 5532 5533 5539 5551 5552 5549 5543 5544 5547 5543 5541 5539 5543 5536 5537 5538 5541
5529 5528 5528 5525 5524 5520 5513 5507 5502 5495 5487 5483 5483 5474 5476 5474 5482 5493 5500 5505 5503 5505 5514 5521 5512 5518 5514 5515 5513 5521 5522 5518 5514 5515 5519 5514 5518 5518
5523 5521 5519 5517 5515 5512 5505 5497 5489 5482 5477 5472 5462 5461 5458 5461 5468 5471 5478 5482 5479 5482 5489 5495 5492 5490 5489 5489 5490 5489 5497 5493 5496 5492 5501 5497 5499 5503
5513 5511 5509 5506 5504 5502 5497 5488 5480 5473 5466 5461 5457 5454 5447 5452 5456 5462 5463 5465 5465 5466 5466 5469 5468 5470 5468 5468 5473 5473 5473 5476 5474 5476 5480 5483 5486 5488
5506 5503 5501 5500 5496 5490 5486 5480 5472 5464 5460 5455 5449 5445 5444 5443 5444 5444 5445 5449 5451 5451 5444 5450 5451 5450 5454 5453 5453 5454 5454 5456 5455 5460 5464 5468 5470 5476
5496 5491 5488 5484 5480 5477 5473 5468 5462 5454 5448 5443 5437 5435 5433 5431 5430 5430 5429 5431 5432 5433 5428 5429 5429 5430 5434 5434 5434 5437 5436 5437 5441 5445 5449 5453 5457 5461
5486 5480 5475 5470 5464 5459 5455 5450 5446 5441 5436 5429 5424 5420 5417 5415 5413 5412 5412 5412 5411 5410 5412 5411 5413 5412 5413 5415 5416 5419 5420 5424 5425 5428 5434 5438 5442 5445
5474 5469 5463 5457 5451 5444 5437 5431 5424 5420 5417 5414 5408 5401 5397 5394 5394 5394 5394 5394 5394 5393 5391 5388 5388 5391 5394 5396 5400 5401 5409 5411 5413 5415 5418 5419 5420 5423
5459 5452 5447 5440 5432 5425 5419 5413 5407 5400 5395 5391 5388 5383 5379 5375 5373 5370 5370 5371 5372 5373 5372 5371 5370 5370 5371 5371 5373 5383 5388 5390 5396 5398 5400 5401 5403 5405
5446 5440 5434 5427 5418 5409 5400 5393 5388 5381 5375 5370 5366 5363 5359 5356 5351 5346 5344 5344 5345 5344 5346 5348 5348 5349 5350 5351 5355 5360 5364 5369 5374 5376 5380 5385 5385 5385
5438 5431 5423 5415 5408 5399 5388 5378 5370 5365 5359 5355 5350 5345 5340 5336 5332 5327 5324 5321 5319 5320 5320 5319 5319 5326 5331 5335 5334 5336 5339 5343 5346 5347 5350 5355 5363 5364
5430 5420 5409 5399 5390 5379 5369 5360 5354 5348 5341 5337 5331 5326 5319 5313 5307 5301 5297 5297 5299 5299 5297 5295 5297 5298 5304 5307 5309 5314 5317 5318 5322 5324 5327 5331 5335 5338
5422 5411 5400 5388 5377 5366 5355 5348 5340 5333 5327 5321 5316 5309 5301 5297 5292 5286 5280 5276 5277 5278 5277 5279 5279 5279 5282 5286 5285 5289 5294 5297 5302 5306 5310 5313 5315 5315
5412 5401 5391 5379 5367 5354 5344 5336 5329 5321 5314 5305 5299 5293 5288 5282 5278 5271 5267 5265 5264 5260 5259 5262 5264 5265 5267 5266 5271 5279 5282 5284 5287 5290 5292 5295 5297 5299
5402 5391 5378 5364 5352 5342 5333 5325 5318 5311 5302 5293 5287 5282 5275 5269 5265 5259 5255 5252 5250 5247 5246 5248 5251 5252 5252 5254 5257 5262 5266 5270 5272 5274 5280 5281 5281 5283
5393 5382 5370 5358 5345 5332 5322 5315 5306 5300 5291 5283 5276 5270 5263 5257 5253 5249 5245 5242 5239 5239 5238 5238 5240 5240 5241 5242 5244 5249 5252 5257 5262 5263 5267 5270 5270 5271